Location: Azul
(36.7830°S, 59.8500°W)
Time: 12:02:11
(UTC-03:00)

ISS - Pass Details

Date: 05 March 2021
Orbit: 418 x 422 km, 51.6° (Epoch: 16 April)

Event Time Altitude Azimuth Distance (km) Brightness Sun altitude
Rises 20:18:31 0° 228° (SW) 2,406 1.3 -10.0°
Reaches altitude 10° 20:20:39 10° 226° (SW) 1,534 0.1 -10.4°
Maximum altitude 20:24:06 74° 140° (SE) 451 -3.7 -11.0°
Enters shadow 20:26:35 17° 56° (NE) 1,145 -2.1 -11.5°
